ILAIGU24 Weather Reports


time (UTC)temp
F
wind
direction
speed
knots
gust
knots
rain 1hr
in
rain 24hr
in
rain mn
in
humidity
%
barometer
mb
20260506033027 57 248 1.7 3.5 0.00 0.12 0.04 91 1009.7
20260506031513 56 257 0.9 2.6 0.00 0.15 0.04 91 1009.8
20260506030004 56 261 2.6 3.5 0.00 0.22 0.04 91 1010.0
20260506024510 57 240 1.7 3.5 0.00 0.31 0.03 91 1010.1
20260506023009 57 246 1.7 3.5 0.00 0.35 0.03 91 1010.0
20260506021512 57 246 1.7 3.5 0.00 0.38 0.03 91 1010.3
20260506020012 57 251 1.7 3.5 0.00 0.40 0.03 91 1010.4
20260506014507 56 247 1.7 3.5 0.00 0.44 0.03 91 1010.4
20260506013004 56 258 1.7 3.5 0.00 0.51 0.03 90 1010.8
20260506011507 56 244 0.9 4.3 0.00 0.55 0.03 90 1010.7
20260506010012 57 257 1.7 5.2 0.00 0.60 0.03 90 1010.8
20260506004519 57 251 1.7 4.3 0.01 0.65 0.03 90 1011.1
20260506003016 57 235 1.7 3.5 0.02 0.70 0.03 89 1011.1
20260506001508 57 238 2.6 5.2 0.03 0.75 0.03 89 1011.1
20260506000011 58 242 3.5 5.2 0.03 0.76 0.03 89 1011.1
20260505234507 58 245 1.7 3.5 0.02 0.77 0.02 88 1012.4
20260505233022 58 277 1.7 7.0 0.01 0.78 0.01 88 1012.4
20260505231524 58 242 2.6 6.1 0.00 0.81 0.00 88 1012.1
20260505230008 58 254 1.7 5.2 0.00 0.85 0.00 88 1011.9
20260505224516 58 257 0.9 2.6 0.00 0.86 0.00 89 1011.9
20260505223013 58 257 1.7 3.5 0.00 0.91 0.00 89 1012.2
20260505221511 58 261 0.9 3.5 0.00 0.96 0.00 89 1012.7
20260505220024 58 252 1.7 3.5 0.00 1.14 0.00 89 1012.9
20260505214518 58 248 1.7 3.5 0.00 1.31 1.14 89 1013.3
20260505213021 58 250 1.7 3.5 0.00 1.37 1.14 90 1013.4
20260505211521 57 250 1.7 2.6 0.00 1.38 1.14 90 1013.5
20260505210021 57 250 1.7 3.5 0.00 1.38 1.14 90 1013.5
20260505204516 57 250 1.7 3.5 0.00 1.38 1.14 90 1013.6
20260505203029 57 251 1.7 3.5 0.00 1.38 1.14 90 1013.5
20260505201523 57 246 1.7 3.5 0.00 1.38 1.14 89 1013.6
20260505200035 57 246 1.7 3.5 0.00 1.38 1.14 89 1013.6
20260505194524 57 246 1.7 3.5 0.00 1.38 1.14 89 1013.5
20260505193006 57 246 1.7 3.5 0.00 1.38 1.14 88 1013.5
20260505191518 57 253 1.7 3.5 0.00 1.38 1.14 88 1013.1
20260505190004 57 244 1.7 3.5 0.00 1.38 1.14 87 1013.0
20260505184510 58 240 1.7 3.5 0.00 1.38 1.14 87 1013.1
20260505183008 58 244 2.6 3.5 0.00 1.39 1.14 86 1013.2
20260505181503 59 243 1.7 3.5 0.00 1.39 1.14 85 1013.1
20260505180008 60 242 1.7 3.5 0.00 1.39 1.14 83 1013.1
20260505174507 61 256 1.7 3.5 0.00 1.39 1.14 81 1013.3
20260505173002 63 239 0.0 0.0 0.00 1.39 1.14 77 1013.3
20260505171508 63 94 0.0 2.6 0.00 1.39 1.14 75 1013.4
20260505170009 63 121 0.0 1.7 0.00 1.39 1.14 75 1013.5
20260505164506 63 101 0.0 2.6 0.00 1.39 1.14 74 1013.6
20260505163016 63 82 0.0 0.0 0.00 1.39 1.14 74 1013.6
20260505161508 63 95 0.0 0.0 0.00 1.39 1.14 74 1013.6
20260505153012 64 116 0.0 2.6 0.00 1.39 1.14 73 1013.6
20260505151508 63 115 0.0 2.6 0.00 1.39 1.14 72 1013.6
20260505124507 63 118 0.0 3.5 0.00 1.39 1.14 78 1013.8
20260505123003 63 107 0.0 0.0 0.00 1.39 1.14 78 1013.8
20260505121516 63 92 0.0 0.0 0.00 1.39 1.14 78 1013.9
20260505120029 63 109 0.0 2.6 0.00 1.39 1.14 80 1013.9
20260505114503 62 288 0.0 0.9 0.00 1.39 1.14 82 1013.9
20260505113008 62 288 0.9 2.6 0.00 1.39 1.14 80 1013.9
20260505111514 62 117 1.7 4.3 0.00 1.39 1.14 80 1013.9
20260505101511 61 121 0.0 0.0 0.00 1.39 1.14 82 1013.8
20260505100012 61 121 0.0 0.0 0.00 1.39 1.14 83 1013.8
20260505094507 61 70 0.0 0.0 0.00 1.39 1.14 83 1013.8
20260505093020 61 70 0.0 0.0 0.00 1.39 1.14 83 1013.8
20260505091507 61 120 0.0 2.6 0.00 1.38 1.13 83 1013.7
20260505090019 61 119 0.0 2.6 0.00 1.38 1.13 85 1013.6
20260505084518 61 128 0.0 0.0 0.02 1.38 1.13 87 1013.6
20260505083021 60 128 0.0 0.0 0.03 1.38 1.13 88 1013.5
20260505081512 60 252 0.0 0.0 0.03 1.38 1.13 90 1013.5
20260505080012 60 252 0.0 2.6 0.03 1.38 1.13 89 1013.5
20260505074516 60 76 0.0 7.0 0.00 1.36 1.11 88 1014.0
20260505073022 60 256 0.0 0.0 0.00 1.35 1.10 89 1012.8
20260505071531 60 256 0.0 0.0 0.00 1.35 1.10 90 1012.7
20260505070019 60 256 1.7 3.5 0.00 1.35 1.10 90 1012.6
20260505064516 59 254 0.9 2.6 0.00 1.35 1.10 91 1012.4
20260505063017 58 254 0.9 2.6 0.00 1.35 1.10 91 1012.3
20260505061525 58 251 0.9 2.6 0.00 1.35 1.10 91 1012.5
20260505060041 58 245 0.0 0.9 0.00 1.35 1.10 92 1012.4
20260505054529 56 245 0.0 1.7 0.00 1.35 1.10 91 1012.2
20260505053026 56 245 0.9 2.6 0.00 1.35 1.10 91 1012.1
20260505051525 56 225 0.0 0.0 0.00 1.35 1.10 91 1012.0
20260505041507 56 246 1.7 2.6 0.06 1.34 1.09 90 1012.3
20260505040005 56 293 1.7 5.2 0.11 1.33 1.08 90 1012.4
20260505034505 56 294 2.6 8.7 0.21 1.33 1.07 90 1012.2